Location: Grand Lay
(47.3253°N, 0.9468°E)
Time: 19:09:49
(UTC+00:00)

Gbstr 26 Del rocket - Pass Details

Date: 12 April 2026
Orbit: 490 x 1216 km, 51.8° (Epoch: 13 May)

Event Time Altitude Azimuth Distance (km) Brightness Sun altitude
Exits shadow 01:57:08 28° 59° (ENE) 962 4.5 -28.0°
Drops below altitude 10° 01:58:58 10° 64° (ENE) 1,682 6.0 -27.8°
Sets 02:01:07 0° 66° (ENE) 2,573 7.1 -27.6°
